EHI
18 19 18 14 9 8 9 7 3 1 0 0 0 1 3 4 2 1 3 7 10 9 7 5 4 4 3 2 2 3 3 3 3 3 1 0 0 0 0 0 0 0 0
20 20 18 14 10 9 9 8 5 3 2 1 2 3 4 5 4 3 3 6 7 7 7 6 5 4 3 3 3 3 3 2 2 3 2 1 1 0 0 0 0 0 0
22 19 16 13 11 11 12 12 9 6 4 4 5 5 6 6 5 4 4 4 4 5 6 6 6 5 4 3 3 3 3 2 2 3 3 3 2 2 1 0 0 0 0
22 19 15 12 11 12 14 14 12 8 6 6 5 5 5 5 5 5 5 4 3 4 5 6 6 6 5 4 4 5 4 3 3 3 3 4 4 3 1 0 0 0 0
22 20 16 14 14 15 14 14 14 11 8 6 3 2 2 3 4 5 5 3 2 3 4 5 6 7 6 6 6 7 7 6 4 4 3 4 5 3 1 0 0 0 0
23 22 18 16 17 17 14 14 16 14 11 6 3 1 1 1 3 4 4 2 1 2 3 4 5 6 7 7 7 7 6 5 4 4 4 4 4 2 1 0 0 0 0
24 23 19 18 18 17 16 16 16 15 11 7 5 4 3 2 3 4 4 2 1 2 3 4 4 5 5 6 5 3 3 3 3 3 4 4 4 3 1 1 1 0 0
23 23 21 18 17 17 17 16 17 15 11 8 7 7 5 4 3 3 3 2 1 2 3 4 5 5 5 5 4 3 3 3 3 3 3 4 4 3 2 2 2 1 0
24 23 20 17 17 18 19 19 18 16 12 9 8 7 6 5 4 3 1 1 1 1 3 4 5 6 6 6 5 4 3 3 3 3 3 3 2 1 1 1 2 1 1
28 24 19 17 16 18 19 19 19 16 11 7 7 6 5 4 4 3 2 1 1 1 2 3 5 7 8 7 5 4 3 2 2 3 3 2 1 0 0 0 1 1 0
30 26 22 20 19 17 16 18 20 15 9 6 4 4 3 2 2 2 2 1 1 3 4 5 6 8 7 5 4 3 2 1 1 1 1 0 0 0 0 0 0 0 0
28 26 24 23 22 19 16 18 18 12 7 5 5 4 2 1 1 1 1 0 1 3 7 7 7 6 5 3 2 1 1 0 0 0 0 0 0 0 0 0 0 0 0
25 24 21 21 22 20 18 19 17 10 5 5 6 6 4 2 2 1 1 1 0 2 5 6 4 3 3 2 2 1 1 0 0 0 0 0 0 0 0 0 1 1 0
19 19 18 19 19 18 17 18 16 10 6 5 6 7 6 5 3 3 3 2 1 1 2 3 4 5 4 3 2 1 1 1 0 0 0 0 0 0 0 0 1 1 1
15 16 18 18 18 15 15 16 15 10 7 6 6 7 7 5 4 4 4 3 1 0 1 2 5 7 5 2 1 0 1 1 0 0 0 0 0 0 0 0 0 0 0
14 15 16 17 16 15 15 15 13 9 8 7 6 5 4 4 4 3 2 2 1 0 0 2 4 5 3 1 1 1 2 1 0 0 0 0 0 0 0 0 0 0 0
14 14 14 14 14 14 16 16 12 10 9 8 7 5 3 3 4 3 2 1 1 0 0 1 3 3 3 2 3 4 3 1 0 0 0 0 0 0 0 0 0 0 0
15 15 14 13 12 12 14 14 11 10 10 8 7 7 6 5 5 5 3 1 1 0 0 0 2 3 3 4 5 4 2 1 0 0 0 0 0 0 0 0 0 0 0
15 15 15 14 12 11 11 11 9 9 9 8 9 11 11 9 7 5 3 1 0 0 0 0 1 2 2 3 4 3 1 0 0 0 0 0 0 0 0 0 0 0 0
13 13 14 14 12 10 9 8 8 8 7 8 12 14 13 11 9 5 2 1 1 1 1 1 1 1 1 1 2 2 1 1 0 0 0 0 0 0 0 0 0 0 0
11 11 10 10 10 9 8 7 7 7 7 9 12 13 10 8 7 4 1 0 2 3 3 2 1 1 1 0 1 1 0 0 0 0 0 0 0 0 0 0 0 0 0
9 8 8 8 8 7 7 6 6 7 7 9 11 10 7 4 4 3 1 0 2 4 4 4 3 3 2 1 0 0 0 0 0 0 1 1 1 0 0 0 0 0 0
7 7 7 7 7 6 5 3 4 6 7 8 11 11 7 4 3 3 2 1 2 2 4 5 4 4 4 3 1 1 1 1 0 1 2 2 2 1 0 0 0 0 0
7 7 6 7 7 6 4 2 2 5 6 8 10 10 8 5 4 4 4 3 2 2 2 4 5 5 4 3 2 3 4 3 1 1 3 4 3 1 0 0 0 0 0
8 7 6 7 7 6 3 1 2 5 7 8 8 8 6 5 4 4 4 4 5 4 2 2 4 3 2 2 2 3 4 4 2 2 4 4 3 2 2 2 2 1 0
9 7 6 6 6 5 2 0 2 5 7 8 8 6 4 4 3 2 3 5 6 7 3 1 1 1 1 1 1 2 4 4 3 3 3 3 3 3 4 4 3 1 0
Wind_Speed
2 2 1 2 2 2 3 2 2 2 1 1 1 2 2 3 5 5 5 9 10 8 7 6 6 5 5 5 5 5 5 5 6 6 6 6 6 6 5 6 6 6 6
1 2 2 1 1 1 1 2 2 2 1 1 0 1 2 3 4 5 5 6 8 8 7 6 6 5 5 6 6 6 5 6 6 6 6 6 6 6 5 5 6 6 6
2 2 2 2 2 2 2 1 1 2 1 1 1 1 1 2 3 4 5 4 5 7 7 6 6 6 6 6 6 6 5 6 6 6 6 6 6 6 5 6 6 6 6
2 2 2 2 2 2 2 2 1 1 1 1 1 0 2 2 3 3 3 4 4 4 6 7 6 6 6 6 7 6 6 6 6 5 5 5 5 5 5 5 5 5 5
3 2 2 2 2 2 2 2 2 1 1 1 1 1 1 2 2 3 3 3 3 4 4 6 7 7 6 6 7 7 7 7 6 6 5 5 5 6 5 5 5 4 4
3 2 2 2 2 2 2 1 2 1 1 1 1 1 1 1 2 2 3 3 2 4 4 5 4 5 7 6 7 7 7 7 6 6 5 5 5 6 6 6 6 5 5
3 2 2 2 2 2 2 3 2 2 1 1 1 1 0 1 1 1 2 2 2 2 4 4 4 3 3 7 7 7 7 6 6 5 5 5 5 4 5 7 6 6 6
3 3 3 2 2 2 2 2 2 1 2 2 1 1 1 1 1 2 2 3 2 2 2 3 3 3 3 3 4 7 7 6 6 6 5 4 4 4 4 5 6 6 6
4 2 4 3 2 2 3 3 3 2 2 1 1 1 1 1 1 1 2 1 2 2 2 2 3 3 3 3 4 6 7 7 6 5 5 5 4 4 4 4 5 6 7
4 3 3 3 3 2 3 4 3 2 2 1 1 1 1 1 1 1 0 1 2 2 1 2 2 2 2 3 4 7 8 7 6 6 5 4 4 5 4 4 4 4 6
4 3 3 3 2 2 3 3 3 2 2 2 1 1 1 0 1 2 1 1 1 1 1 1 1 2 2 3 4 7 9 8 6 5 5 5 5 5 5 5 4 4 5
3 4 3 3 2 2 2 2 2 2 2 1 1 1 1 1 1 1 2 2 1 1 1 1 1 2 2 3 5 9 9 8 7 5 4 5 5 5 5 5 5 5 5
3 4 3 3 2 2 2 2 2 2 2 2 2 1 1 1 1 1 1 1 1 1 1 1 2 2 2 3 4 8 8 7 7 6 5 5 5 5 5 5 5 6 6
3 4 3 3 3 3 3 3 2 2 2 2 3 1 1 1 0 0 1 1 1 1 1 2 2 2 2 3 5 7 5 7 7 7 6 5 5 5 5 5 5 5 5
2 4 4 3 3 3 3 2 2 2 2 2 2 2 1 1 1 1 1 1 1 1 2 2 1 2 2 2 5 4 3 7 8 8 7 7 6 6 6 5 5 5 4
2 3 3 4 3 3 3 3 2 2 2 3 3 2 2 2 1 1 1 1 1 1 2 1 1 2 2 3 5 3 3 6 8 9 9 8 8 7 7 6 6 6 6
2 3 3 3 4 3 3 3 3 4 4 3 3 3 3 2 1 1 1 1 1 1 1 1 0 1 2 2 3 2 3 4 5 9 10 10 9 9 8 8 7 7 6
2 3 3 3 3 3 3 3 3 3 3 3 3 3 3 3 2 1 1 2 1 1 1 2 1 1 2 3 4 3 3 4 3 7 11 11 11 10 10 9 8 8 8
2 3 3 3 3 3 3 3 3 3 3 3 3 3 3 3 3 2 2 2 2 2 1 1 2 1 2 2 3 3 3 2 4 5 8 11 11 11 10 10 10 9 9
2 2 2 3 3 3 3 3 3 3 3 3 3 3 4 4 4 3 2 2 2 2 2 2 2 2 2 2 2 2 2 2 3 3 4 6 9 11 12 11 11 11 10
3 2 2 2 2 3 3 3 3 4 3 3 3 4 3 4 4 3 3 2 2 1 2 2 2 2 1 1 2 2 2 2 3 3 2 3 4 5 7 10 11 12 11
2 2 3 3 3 3 2 3 2 2 3 3 4 3 4 4 5 6 5 4 3 3 3 2 2 2 2 2 2 2 2 2 2 2 2 3 3 4 5 5 10 13 13
1 2 2 2 2 2 4 3 2 2 3 3 4 4 4 4 5 4 5 6 5 6 6 3 3 3 3 2 2 3 2 3 3 2 2 4 3 3 4 6 11 13 13
1 1 2 2 2 3 4 4 4 4 4 4 4 4 4 3 4 3 4 5 4 4 5 5 4 4 4 2 2 3 3 3 3 3 3 4 3 4 4 3 9 12 13
1 2 2 2 3 3 5 5 4 3 3 4 5 4 4 4 4 4 4 4 4 4 5 6 6 6 6 5 4 2 3 3 4 4 3 3 3 3 3 3 6 12 13
2 2 2 2 2 2 5 6 5 3 3 3 3 4 5 4 4 6 5 4 5 4 4 4 4 5 6 7 8 6 5 4 4 4 3 3 3 2 3 2 2 4 6
Wind_Direction
158 149 146 158 174 165 164 167 174 173 182 163 168 112 112 113 119 121 129 142 143 144 143 142 145 147 151 152 149 149 153 155 153 154 158 161 162 162 165 174 172 167 164
132 140 148 150 156 128 125 147 154 151 149 131 140 105 101 112 114 123 132 141 151 155 156 155 154 156 159 158 155 153 154 154 156 157 160 163 165 162 159 164 172 173 170
147 141 152 174 171 147 137 134 157 129 160 146 114 102 101 108 128 136 145 151 153 159 161 159 159 160 160 161 157 155 155 155 157 160 163 165 169 165 163 163 167 169 170
159 165 169 180 181 163 147 153 162 136 128 119 132 181 135 149 149 161 154 155 156 157 166 169 168 164 164 166 165 164 162 158 156 161 169 171 171 167 166 166 169 172 175
171 173 161 166 183 160 157 176 141 144 142 151 178 195 159 164 169 165 153 150 152 158 153 168 174 175 177 176 174 173 174 171 170 168 167 171 175 173 171 173 172 173 175
176 169 156 166 172 156 157 145 123 129 157 189 208 143 136 174 167 157 165 149 167 163 153 153 168 183 185 181 179 179 179 177 176 174 174 175 173 176 179 179 178 181 183
175 169 152 171 176 160 168 168 149 179 184 176 134 133 169 204 177 171 164 165 171 168 163 160 167 166 178 186 184 182 180 176 174 174 175 174 167 167 177 186 188 189 190
177 180 158 182 180 157 161 166 160 181 198 176 166 171 181 153 265 198 171 182 169 162 170 170 156 169 169 162 175 179 174 172 172 175 180 177 172 173 178 187 193 194 192
179 177 163 181 183 171 165 177 177 191 206 206 164 163 182 176 173 197 201 156 153 171 175 154 155 155 160 154 155 166 165 167 166 173 181 182 183 185 189 191 199 204 199
170 174 168 173 183 177 161 187 181 201 189 207 214 234 263 118 149 155 236 176 185 193 176 170 158 149 147 147 143 145 158 164 168 173 183 188 193 199 200 204 210 215 207
171 169 164 169 178 175 172 190 159 187 190 198 221 219 244 218 207 152 183 206 218 180 188 173 153 149 150 146 150 152 156 163 171 182 193 200 207 211 211 213 218 218 212
169 173 171 163 172 172 174 169 179 192 200 213 231 221 197 215 209 178 178 193 197 209 195 174 168 174 159 135 145 153 159 166 175 186 198 210 215 218 217 218 220 219 217
173 173 171 172 167 169 171 167 192 210 211 213 229 242 242 241 207 185 176 204 194 201 205 200 186 184 162 131 137 152 160 168 176 187 199 210 219 224 221 221 221 221 223
173 160 163 168 167 174 172 174 187 202 208 228 237 244 276 271 304 249 170 166 207 225 209 209 173 157 130 130 148 162 166 175 178 187 199 211 220 220 216 215 220 223 226
166 152 163 168 174 176 169 174 181 205 190 210 232 229 269 282 265 278 277 209 193 229 235 219 177 160 154 139 156 168 166 182 186 193 203 211 217 220 219 218 220 220 221
151 155 167 170 175 177 176 179 186 200 196 210 214 208 234 272 279 286 281 281 265 248 255 227 203 166 162 171 164 167 171 186 199 203 207 210 212 217 219 218 219 220 221
158 168 174 173 175 180 180 189 202 197 205 209 217 201 203 244 265 268 275 276 260 254 254 270 230 171 171 168 162 188 186 188 201 210 208 208 209 212 216 218 219 218 219
179 172 178 175 182 181 182 191 206 198 199 203 211 203 203 221 228 278 280 278 283 268 226 241 235 229 205 178 179 202 211 208 212 213 208 207 207 212 216 218 218 218 218
183 182 179 182 189 185 189 193 202 204 200 206 213 215 213 210 211 230 253 257 257 266 248 237 240 222 208 209 196 217 228 226 235 219 207 207 210 215 218 219 219 220 220
179 186 186 194 198 197 197 195 201 210 210 215 222 222 217 204 205 218 235 247 253 257 255 244 234 227 217 208 194 209 233 230 241 237 210 207 212 217 221 219 219 221 221
195 190 190 198 200 209 205 196 209 212 213 225 231 229 221 198 186 201 230 231 241 243 254 249 239 244 231 208 220 225 234 238 243 233 211 214 207 215 220 223 223 223 221
215 205 203 207 209 225 176 172 209 244 228 229 234 234 214 198 197 198 213 216 217 226 235 245 253 252 255 250 243 254 253 247 254 232 223 242 212 215 216 211 213 215 218
225 225 217 214 207 196 169 178 206 252 242 238 236 230 239 220 197 204 214 220 223 228 222 224 243 251 249 242 247 265 266 263 263 248 247 256 242 233 227 219 206 209 212
219 220 231 229 221 204 185 188 208 237 242 234 238 235 231 226 223 205 216 216 220 225 223 219 227 244 249 245 240 251 260 263 266 252 224 248 254 250 244 214 205 206 208
237 235 230 225 229 207 189 187 192 234 237 237 239 240 230 221 211 199 216 222 222 234 239 231 226 235 239 240 236 246 255 251 261 255 224 229 248 258 246 224 213 211 211
239 241 243 232 232 214 189 192 196 232 245 250 237 233 228 221 204 199 212 222 232 237 242 245 246 250 240 239 232 222 231 245 255 258 228 221 247 252 262 237 208 200 216